Lid_Strength_Index
-1 -1 -0 2 7 7 10 9 6 7 7 6 5 6 8 7 8 11 2 1 0 0 -0 -0 -0 -1 -1 -1 -1 -1 -2 -2 -2 -2 -2 -2 -2 -2 -2 -2 -2 -2 -3 -2 -2 -2 -3 -3 -2
0 0 2 4 9 11 10 8 8 7 5 5 5 6 7 9 5 4 3 1 0 0 -0 -0 -0 -1 -1 -1 -1 -1 -2 -2 -2 -2 -2 -2 -2 -2 -2 -2 -2 -2 -3 -2 -2 -2 -2 -2 -2
1 1 5 7 9 11 10 7 7 5 4 5 5 5 6 8 4 3 2 0 0 0 -1 -1 -0 -1 -1 -1 -1 -1 -1 -1 -2 -2 -2 -2 -2 -2 -2 -2 -2 -2 -3 -2 -2 -2 -2 -2 -3
1 2 4 8 10 8 8 6 6 6 4 4 5 8 5 3 3 2 1 2 1 0 -0 -0 -0 -1 -1 -1 -1 -1 -1 -1 -1 -1 -2 -2 -2 -2 -2 -1 -2 -2 -3 -2 -2 -2 -2 -3 -3
2 4 8 9 9 7 6 5 5 6 5 6 5 9 7 3 1 1 2 1 2 1 -0 -0 -0 -1 -1 -1 -1 -1 -1 -1 -1 -1 -2 -2 -2 -2 -2 -1 -2 -2 -2 -2 -1 -2 -2 -3 -3
5 4 9 10 9 7 7 6 5 5 5 5 7 7 7 2 2 2 1 1 0 1 -0 -0 -1 -1 -1 -1 -1 -1 -1 -1 -1 -1 -1 -2 -2 -2 -2 -2 -2 -2 -2 -2 -2 -2 -3 -3 -3
5 7 9 9 8 9 8 6 7 6 6 8 6 9 6 4 3 2 1 0 0 -0 0 0 -0 -1 -1 -0 -1 -0 -1 -1 -1 -1 -1 -1 -1 -2 -2 -2 -2 -2 -2 -2 -2 -3 -3 -3 -2
4 6 9 8 9 8 7 6 5 6 8 4 4 9 8 4 3 3 2 2 1 0 0 0 -0 -0 -0 -1 -0 -1 -1 -1 -1 -1 -1 -1 -1 -2 -2 -2 -2 -2 -2 -2 -3 -3 -3 -2 -2
3 8 10 9 8 7 5 6 6 5 7 6 5 5 4 2 2 3 4 4 3 2 1 1 0 -0 -0 -0 -1 -1 -1 -1 -1 -1 -1 1 1 1 -0 -1 -2 -2 -2 -3 -4 -3 -2 -1 -1
5 8 8 6 6 6 5 5 6 7 7 7 6 4 3 3 3 4 4 5 4 3 3 2 2 3 1 -0 -0 -0 -1 -0 1 1 1 1 0 1 -0 -1 -1 -1 -2 -3 -2 -2 -2 -1 2
5 8 6 6 5 5 5 6 5 7 9 7 7 6 4 4 4 4 4 4 5 4 3 4 4 3 4 4 3 2 1 0 1 -0 0 -0 0 0 0 0 1 0 -1 1 0 -0 0 0 0
7 5 5 5 4 5 6 5 6 7 7 5 5 4 4 4 4 4 4 4 4 4 5 4 4 4 4 4 5 3 2 1 0 0 -1 -1 -0 0 -0 0 0 0 1 2 1 -0 0 0 1
6 5 5 4 5 5 4 6 7 7 5 4 4 4 4 4 4 3 3 4 4 4 4 4 4 3 3 4 4 3 1 1 1 -0 -1 -1 0 -0 -0 -0 -0 -0 -1 -1 0 -0 0 1 1
5 5 5 5 5 5 6 7 7 6 5 5 5 5 4 4 4 3 4 4 5 5 5 4 4 3 2 3 2 2 2 1 0 -1 -1 -1 -0 -0 0 0 0 -0 -0 -0 -0 0 1 1 2
5 7 6 6 5 6 5 8 8 6 5 6 5 5 4 4 3 4 3 4 5 5 5 4 4 3 4 3 3 2 2 3 2 0 -1 -1 -1 -0 -0 0 0 0 -0 -0 0 1 1 2 2
6 6 9 6 6 6 7 13 7 6 6 6 5 5 4 4 3 3 3 4 4 4 5 4 3 4 4 4 4 3 2 1 1 -0 -1 -1 -1 -1 -0 0 0 -0 -0 0 1 1 1 2 3
7 10 9 8 5 7 8 12 7 5 6 6 6 5 5 5 3 3 2 3 2 3 3 3 2 3 1 2 2 1 -1 -0 -1 -1 -1 -1 -1 -1 -0 -0 -0 -0 0 0 0 0 1 3 4
10 10 9 10 7 6 9 11 9 7 6 6 5 5 5 5 4 3 2 2 1 1 2 2 2 1 1 1 2 -0 -0 -0 -0 -0 -0 -0 -0 -1 -0 -0 -0 0 0 0 1 1 3 3 4
8 9 9 8 7 7 8 10 10 8 6 6 6 5 5 4 3 3 2 2 2 1 1 1 1 1 0 1 1 1 1 1 0 -0 -0 -0 -0 -0 -0 0 0 1 1 1 0 2 4 5 5
8 9 9 8 6 7 8 10 9 9 7 6 6 6 5 4 4 3 3 2 2 2 1 1 1 1 1 1 1 1 1 0 0 -0 -0 -0 -0 -0 -0 0 1 0 1 1 1 2 4 4 4
8 9 9 9 8 7 8 9 10 7 6 5 5 5 4 4 5 4 3 3 2 2 2 1 1 1 0 0 0 0 0 0 1 1 1 0 -0 -0 -0 0 0 0 0 1 2 3 4 6 6
10 7 8 8 9 12 8 13 9 8 7 6 6 5 5 4 4 4 3 3 3 2 1 1 1 1 0 0 1 1 2 2 1 1 0 0 -0 0 0 0 0 0 1 2 3 3 5 6 6
8 7 7 8 9 10 10 12 10 7 8 7 6 5 5 4 4 4 3 3 2 2 2 1 1 1 1 1 1 1 2 1 1 1 1 1 0 0 0 0 0 1 1 3 3 4 5 5 6
6 7 8 8 9 14 11 11 11 9 8 7 6 5 5 4 4 3 3 2 2 2 2 1 1 1 1 1 1 1 2 2 2 2 2 1 1 0 1 1 1 3 4 4 5 5 5 5 5
7 9 14 15 15 16 10 11 10 7 7 7 6 6 6 4 4 4 3 3 3 2 2 2 2 2 1 1 1 1 1 1 2 2 2 2 1 2 3 4 4 4 4 5 5 5 6 6 6
8 9 14 18 18 16 12 14 10 6 5 5 5 5 5 4 4 4 3 3 3 2 2 2 2 2 1 1 1 1 1 1 1 1 1 1 2 3 4 4 4 4 4 5 5 5 6 6 6
9 11 8 12 13 17 16 11 7 6 6 6 5 5 4 4 4 4 3 3 3 2 2 2 2 2 1 1 1 1 1 1 1 1 1 2 2 4 4 4 4 5 5 6 6 6 6 6 6
7 7 12 11 17 19 14 12 11 9 7 6 6 5 4 4 3 3 3 3 2 2 2 2 2 2 1 1 1 1 1 1 1 1 1 2 3 4 4 4 4 6 6 6 6 6 6 5 6
9 10 9 10 11 17 17 14 8 8 6 6 6 5 4 4 4 3 3 3 2 2 2 2 2 2 2 1 1 1 2 2 1 1 2 3 3 3 4 4 5 6 6 6 7 6 6 7 5
7 9 9 13 14 13 15 13 6 6 6 5 5 4 4 3 3 3 3 2 3 2 2 2 2 2 2 2 2 1 1 1 2 2 3 3 3 3 4 5 6 6 6 7 7 7 6 6 7